Caldwell, TX

4:10 PM CST on February 24, 2017 (GMT -0600)
Caldwell

Weather History for KRWV - February, 2014

Change the Weather History Date:

Tuesday, February 11, 2014

  Actual Average (KCLL) Record (KCLL)
Temperature  
Mean Temperature 34 °F -  
Max Temperature 35 °F 62 °F 87 °F (2017)
Min Temperature 32 °F 42 °F 17 °F (1981)
Degree Days  
Heating Degree Days 32    
Moisture  
Dew Point 32 °F    
Average Humidity 95    
Maximum Humidity 100    
Minimum Humidity 81    
Precipitation  
Precipitation 0.11 in - - ()
Sea Level Pressure  
Sea Level Pressure 30.23 in    
Wind  
Wind Speed 9 mph (NE)    
Max Wind Speed 16 mph    
Max Gust Speed 22 mph    
Visibility 5 miles    
Events Rain    
Averages and records for this station are not official NWS values.
T = Trace of Precipitation, MM = Missing Value Source: NWS Daily Summary

Daily Weather History Graph

Daily Weather History Graph

Search for Another Location

Airport or City:

Trip Planner

Search our weather history database for the weather conditions in past years. The results will help you decide how hot, cold, wet, or windy it might be!

Date:

Astronomy

Feb. 11, 2014 Rise Set
Actual Time 7:10 AM CST 6:11 PM CST
Civil Twilight 6:45 AM CST 6:36 PM CST
Nautical Twilight 6:17 AM CST 7:04 PM CST
Astronomical Twilight 5:49 AM CST 7:33 PM CST
Moon 3:38 PM CST (2/11) 4:42 AM CST (2/11)
Length of Visible Light 11h 50m
Length of Day
11h 01m
Waxing Gibbous, 91% of the Moon is Illuminated
Feb 11
Waxing Gibbous
Feb 14
Full
Feb 22
Last Quarter
Mar 1
New
Mar 8
First Quarter

Hourly Weather History & Observations

Time (CST) Temp. Windchill Dew Point Humidity Pressure Visibility Wind Dir Wind Speed Gust Speed Precip Events Conditions
12:15 AM 35.6 °F 28.0 °F 35.6 °F 100% 30.22 in 2.0 mi NE 10.4 mph 17.3 mph N/A   Mist
12:35 AM 33.8 °F 24.8 °F 33.8 °F 100% 30.21 in 2.5 mi NNE 12.7 mph - N/A   Mist
12:55 AM 33.8 °F 26.4 °F 33.8 °F 100% 30.21 in 2.5 mi NE 9.2 mph - N/A   Mist
1:15 AM 33.8 °F 25.3 °F 33.8 °F 100% 30.21 in 2.0 mi NNE 11.5 mph - N/A   Mist
1:35 AM 33.8 °F 26.4 °F 33.8 °F 100% 30.21 in 2.0 mi NE 9.2 mph 18.4 mph N/A   Mist
1:55 AM 33.8 °F 25.8 °F 33.8 °F 100% 30.22 in 2.5 mi NE 10.4 mph 20.7 mph N/A   Mist
2:15 AM 33.8 °F 27.0 °F 33.8 °F 100% 30.22 in 2.5 mi NE 8.1 mph - N/A   Mist
2:35 AM 33.8 °F 26.4 °F 33.8 °F 100% 30.22 in 2.0 mi NNE 9.2 mph - N/A   Mist
2:55 AM 33.8 °F 25.8 °F 33.8 °F 100% 30.21 in 1.5 mi NE 10.4 mph 16.1 mph N/A   Light Drizzle
3:15 AM 33.8 °F 24.8 °F 33.8 °F 100% 30.20 in 1.8 mi NE 12.7 mph 19.6 mph N/A   Mist
3:35 AM 33.8 °F 23.9 °F 33.8 °F 100% 30.21 in 1.8 mi NNE 15.0 mph 18.4 mph N/A   Mist
3:55 AM 33.8 °F 25.8 °F 33.8 °F 100% 30.21 in 2.0 mi NE 10.4 mph 16.1 mph N/A   Mist
4:15 AM 33.8 °F 25.8 °F 33.8 °F 100% 30.21 in 2.5 mi NNE 10.4 mph 18.4 mph N/A   Mist
4:35 AM 33.8 °F 26.4 °F 33.8 °F 100% 30.21 in 3.0 mi NE 9.2 mph - N/A   Mist
4:55 AM 33.8 °F 26.4 °F 33.8 °F 100% 30.21 in 3.0 mi NE 9.2 mph - N/A   Mist
5:15 AM 33.8 °F 26.4 °F 33.8 °F 100% 30.21 in 5.0 mi NE 9.2 mph - N/A   Mist
5:35 AM 33.8 °F 26.4 °F 32.0 °F 93% 30.21 in 5.0 mi NE 9.2 mph - N/A   Mist
5:55 AM 33.8 °F 27.0 °F 32.0 °F 93% 30.22 in 6.0 mi NE 8.1 mph - N/A   Mist
6:15 AM 33.8 °F 26.4 °F 32.0 °F 93% 30.23 in 8.0 mi NE 9.2 mph - N/A   Unknown
6:35 AM 33.8 °F 27.0 °F 32.0 °F 93% 30.23 in 10.0 mi NE 8.1 mph - N/A   Unknown
6:55 AM 33.8 °F 25.8 °F 30.2 °F 87% 30.23 in 10.0 mi NE 10.4 mph - N/A   Unknown
7:15 AM 33.8 °F 26.4 °F 30.2 °F 87% 30.24 in 10.0 mi ENE 9.2 mph - N/A   Unknown
7:35 AM 33.8 °F 28.6 °F 30.2 °F 87% 30.25 in 10.0 mi NE 5.8 mph - N/A   Unknown
7:55 AM 33.8 °F 26.4 °F 30.2 °F 87% 30.24 in 10.0 mi ENE 9.2 mph - N/A   Unknown
8:15 AM 33.8 °F 25.8 °F 30.2 °F 87% 30.26 in 10.0 mi NE 10.4 mph 16.1 mph N/A   Unknown
8:35 AM 33.8 °F 24.3 °F 30.2 °F 87% 30.26 in 10.0 mi NE 13.8 mph 18.4 mph N/A   Unknown
8:55 AM 35.6 °F 27.5 °F 30.2 °F 81% 30.26 in 10.0 mi NE 11.5 mph - N/A   Unknown
9:15 AM 35.6 °F 27.5 °F 30.2 °F 81% 30.26 in 10.0 mi NE 11.5 mph 18.4 mph N/A   Unknown
9:35 AM 35.6 °F 27.1 °F 30.2 °F 81% 30.26 in 10.0 mi NE 12.7 mph 17.3 mph N/A   Unknown
9:55 AM 35.6 °F 28.0 °F 32.0 °F 87% 30.27 in 10.0 mi NE 10.4 mph - N/A   Unknown
10:15 AM 35.6 °F 28.6 °F 32.0 °F 87% 30.28 in 10.0 mi NE 9.2 mph - N/A   Unknown
10:35 AM 35.6 °F 29.2 °F 32.0 °F 87% 30.26 in 10.0 mi NE 8.1 mph - N/A   Unknown
10:55 AM 35.6 °F 28.0 °F 30.2 °F 81% 30.26 in 10.0 mi NE 10.4 mph 16.1 mph N/A   Unknown
11:15 AM 35.6 °F 28.0 °F 30.2 °F 81% 30.28 in 10.0 mi NNE 10.4 mph 16.1 mph N/A   Unknown
11:35 AM 35.6 °F 26.6 °F 30.2 °F 81% 30.27 in 10.0 mi NE 13.8 mph - N/A   Unknown
11:55 AM 35.6 °F 28.0 °F 30.2 °F 81% 30.26 in 10.0 mi NE 10.4 mph - N/A   Unknown
12:15 PM 35.6 °F 28.0 °F 32.0 °F 87% 30.25 in 5.0 mi NNE 10.4 mph - N/A   Light Drizzle
12:35 PM 35.6 °F 27.5 °F 32.0 °F 87% 30.25 in 7.0 mi North 11.5 mph - N/A   Unknown
12:55 PM 33.8 °F 24.8 °F 32.0 °F 93% 30.24 in 6.0 mi NNE 12.7 mph 16.1 mph N/A   Mist
1:15 PM 33.8 °F 24.3 °F 32.0 °F 93% 30.23 in 5.0 mi NNE 13.8 mph - N/A   Mist
1:35 PM 33.8 °F 25.8 °F 32.0 °F 93% 30.22 in 3.0 mi NNE 10.4 mph - N/A   Mist
1:55 PM 33.8 °F 25.8 °F 32.0 °F 93% 30.21 in 3.0 mi NE 10.4 mph 17.3 mph N/A   Mist
2:15 PM 33.8 °F 27.0 °F 32.0 °F 93% 30.22 in 1.8 mi NNE 8.1 mph - 0.02 in Rain Heavy Rain
2:35 PM 33.8 °F 26.4 °F 32.0 °F 93% 30.21 in 2.5 mi NNE 9.2 mph - 0.08 in   Drizzle
2:55 PM 32.0 °F 23.6 °F 32.0 °F 100% 30.20 in 3.0 mi NNE 10.4 mph - 0.08 in   Light Drizzle
3:15 PM 32.0 °F 23.0 °F 32.0 °F 100% 30.21 in 2.5 mi NNE 11.5 mph - N/A Rain Light Rain
3:35 PM 32.0 °F 22.5 °F 32.0 °F 100% 30.22 in 1.2 mi North 12.7 mph - 0.01 in   Unknown
3:55 PM 32.0 °F 22.5 °F 32.0 °F 100% 30.22 in 2.0 mi NNE 12.7 mph - 0.01 in   Light Drizzle
4:15 PM 32.0 °F 23.0 °F 32.0 °F 100% 30.21 in 4.0 mi NNE 11.5 mph - N/A   Mist
4:35 PM 32.0 °F 21.2 °F 32.0 °F 100% 30.21 in 3.0 mi NNE 16.1 mph 21.9 mph 0.01 in Rain Light Rain
4:55 PM 32.0 °F 23.0 °F 32.0 °F 100% 30.21 in 2.0 mi NNE 11.5 mph - 0.01 in Rain Rain
5:15 PM 32.0 °F 23.0 °F 32.0 °F 100% 30.21 in 1.5 mi NNE 11.5 mph 17.3 mph 0.01 in Rain Light Rain
5:35 PM 32.0 °F - 32.0 °F 100% 30.22 in 3.0 mi Calm Calm - 0.01 in   Light Drizzle
5:55 PM 32.0 °F - 32.0 °F 100% 30.21 in 5.0 mi Calm Calm - 0.01 in Rain Light Rain
6:15 PM 32.0 °F - 32.0 °F 100% 30.22 in 5.0 mi Calm Calm - N/A   Mist
6:35 PM 32.0 °F - 32.0 °F 100% 30.21 in 8.0 mi Calm Calm - N/A   Unknown
6:55 PM 32.0 °F - 32.0 °F 100% 30.21 in 7.0 mi Calm Calm - N/A   Drizzle
7:15 PM 32.0 °F - 32.0 °F 100% 30.22 in 7.0 mi Calm Calm - N/A   Unknown
7:35 PM 32.0 °F - 32.0 °F 100% 30.23 in 5.0 mi Calm Calm - N/A   Light Drizzle
7:55 PM 32.0 °F - 32.0 °F 100% 30.24 in 3.0 mi Calm Calm - N/A   Light Drizzle
8:15 PM 32.0 °F - 32.0 °F 100% 30.24 in 4.0 mi Calm Calm - N/A   Mist
8:35 PM 32.0 °F - 32.0 °F 100% 30.24 in 6.0 mi Calm Calm - N/A   Mist
8:55 PM 32.0 °F - 32.0 °F 100% 30.25 in 5.0 mi Calm Calm - N/A   Mist
9:15 PM 32.0 °F - 32.0 °F 100% 30.25 in 6.0 mi Calm Calm - N/A   Mist
9:35 PM 32.0 °F - 32.0 °F 100% 30.25 in 6.0 mi Calm Calm - N/A   Mist
9:55 PM 32.0 °F - 32.0 °F 100% 30.24 in 6.0 mi Calm Calm - N/A   Mist
10:15 PM 32.0 °F - 32.0 °F 100% 30.23 in 7.0 mi Calm Calm - N/A   Unknown
10:35 PM 32.0 °F - 32.0 °F 100% 30.23 in 7.0 mi Calm Calm - N/A   Unknown
10:55 PM 32.0 °F - 32.0 °F 100% 30.22 in 6.0 mi Calm Calm - N/A   Mist
11:15 PM 32.0 °F - 32.0 °F 100% 30.22 in 5.0 mi Calm Calm - N/A   Mist
11:55 PM 32.0 °F - 32.0 °F 100% 30.23 in 5.0 mi Calm Calm - N/A   Mist